[[{"header":{"parameterUnit":"m.s-1","parameterCategory":1,"la1":30.2991,"la2":30.254,"lo1":-89.0895,"lo2":-89.0444,"dy":0.0017,"dx":0.0017,"nx":28,"ny":28,"refTime":"2025-03-16T03:00:00:Z","depth":0,"parameterNumber":2,"parameterNumberName":"U-component_of_WINDS"},"data":[0,0,0,0,0,0,0,0,0,0,0,0,0,0,0,0,0,0,0,0,0,0,0,0,0,0,0,0,0,0,0,0,0,0,0,0,0,0,0,0,0,0,0,0,0,0,0,0,0,0,0,0,0,0,0,0,0,0,2.224,2.224,0,2.2315,2.2316,2.2317,2.2325,2.2324,2.2324,2.2323,2.2402,2.2404,2.2407,0,0,0,0,0,0,0,0,0,0,0,0,0,2.2105,2.2107,2.224,2.224,2.2241,2.2315,2.2316,2.2317,2.2325,2.2324,2.2323,2.2322,2.2401,2.2404,2.2407,0,0,0,0,0,0,0,0,0,0,0,0,0,2.217,2.2108,2.2239,2.2254,2.2256,2.2315,2.2316,2.2318,2.2325,2.2324,2.2323,2.2322,2.24,2.2404,2.2408,2.2457,0,0,2.2421,2.2423,0,0,0,0,0,0,0,0,2.2167,2.2175,2.2251,2.2253,2.2256,2.231,2.2298,2.2364,2.2326,2.2299,2.2323,2.2321,2.2372,2.2378,2.2395,2.2461,2.2464,2.2421,2.2424,2.2426,2.2427,0,0,0,0,0,0,0,2.2162,2.2172,2.227,2.2252,2.2255,2.2258,2.2266,2.231,2.2341,2.2301,2.2302,2.2311,2.2373,2.2391,2.2397,2.2465,2.2421,2.2425,2.2427,2.2429,2.2579,2.258,0,0,0,0,0,0,2.2154,2.2168,2.2267,2.2272,2.2207,2.2262,2.227,2.2293,2.2341,2.2347,2.2312,2.2311,2.2384,2.2392,2.24,2.2463,2.2426,2.243,2.2432,2.2577,2.2579,2.2581,0,0,0,0,0,0,2.2151,2.2163,2.2264,2.222,2.2233,2.2265,2.2291,2.2296,2.2314,2.2349,2.2354,2.2324,2.2384,2.2394,2.2444,2.2465,2.2431,2.2435,2.2576,2.2578,2.258,2.2587,0,0,0,0,0,0,2.2148,2.2162,2.218,2.2221,2.2236,2.2305,2.2292,2.2298,2.2321,2.232,2.2362,2.2368,2.2384,2.2437,2.2448,2.2471,2.2439,2.2574,2.2577,2.2579,2.2585,2.2589,2.2593,0,0,0,0,0,2.2143,2.2179,2.2181,2.2193,2.2259,2.2307,2.2315,2.2332,2.2322,2.2342,2.2365,2.2366,2.2461,2.2442,2.2454,2.2479,2.2572,2.2576,2.2579,2.2584,2.2589,2.2593,0,0,0,0,0,0,2.214,2.2184,2.2187,2.2237,2.2268,2.2308,2.2332,2.2337,2.2372,2.237,2.239,2.24,2.2449,2.2469,2.2446,2.2531,2.2516,2.2522,2.2516,2.2521,2.2524,2.2519,2.2442,0,0,0,0,0,2.2145,2.218,2.2217,2.2258,2.2273,2.23,2.2322,2.2332,2.2365,2.2378,2.2405,2.2437,2.2475,2.2499,2.2535,2.2588,2.2599,2.2611,2.2615,2.2618,2.2623,2.2655,2.2662,2.2591,2.2591,2.2591,0,0,2.2156,2.2185,2.2205,2.2258,2.2283,2.2319,2.2311,2.2349,2.2377,2.2384,2.2433,2.2454,2.2492,2.2544,2.2568,2.2562,2.2645,2.2622,2.2625,2.2628,2.2659,2.2666,2.2672,2.2593,2.2593,2.2593,0,0,2.2196,2.222,2.2258,2.2283,2.2322,2.234,2.2349,2.2389,2.2403,2.2452,2.2459,2.2493,2.2556,2.2584,2.2606,2.2658,2.2662,2.267,2.269,2.2721,2.2727,2.2732,2.2752,2.2759,2.2674,2.2674,2.2674,0,2.2205,2.2259,2.2276,2.2315,2.2339,2.2348,2.2387,2.2412,2.246,2.2477,2.2469,2.2551,2.2577,2.2637,2.265,2.2667,2.2679,2.2665,2.2724,2.273,2.2735,2.2754,2.2762,2.2675,2.2675,2.2675,2.2675,0,2.2269,2.2307,2.2333,2.238,2.2407,2.2445,2.247,2.2496,2.2505,2.2524,2.2576,2.2608,2.2651,2.2666,2.2675,2.2729,2.2724,2.272,2.2706,2.2742,2.2761,2.2768,2.2676,2.2676,2.2676,2.2675,0,0,2.2307,2.2365,2.2374,2.2397,2.2441,2.2471,2.2511,2.2554,2.2576,2.261,2.2646,2.27,2.2698,2.2723,2.2736,2.2763,2.2805,2.2756,2.2758,2.2765,2.2868,2.2871,2.2879,2.2808,2.2809,2.281,2.2865,0,2.2352,2.2423,2.2442,2.2503,2.2539,2.255,2.2585,2.2617,2.2637,2.2671,2.2694,2.2733,2.2726,2.2742,2.2769,2.2794,2.2826,2.279,2.2842,2.2844,2.2833,2.2889,2.2892,2.2942,2.2873,2.2874,2.2875,0,2.2414,2.2449,2.2514,2.2556,2.2572,2.2603,2.2646,2.2678,2.2715,2.2728,2.2758,2.2768,2.2812,2.2796,2.2858,2.2834,2.2856,2.2872,2.2875,2.288,2.2862,2.2897,2.2958,2.2966,2.2886,2.2885,2.2884,0,2.2437,2.2501,2.2549,2.2568,2.2617,2.2639,2.2661,2.2697,2.2723,2.276,2.2777,2.2819,2.2842,2.2875,2.2897,2.2883,2.2959,2.2944,2.2972,2.2971,2.2987,2.2986,2.3053,2.3,2.3,2.3,2.3,0,2.2486,2.2525,2.256,2.2589,2.2635,2.2657,2.2702,2.2724,2.2756,2.2791,2.2803,2.2836,2.2863,2.29,2.2918,2.2968,2.2978,2.2991,2.2995,2.299,2.2989,2.3006,2.3003,2.3002,2.3002,2.3001,2.3001,0,2.2519,2.2544,2.2597,2.264,2.2652,2.2683,2.2721,2.2751,2.2772,2.2816,2.2828,2.2862,2.2906,2.2932,2.2988,2.3,2.3056,2.3058,2.3043,2.3046,2.3073,2.307,2.3154,2.3167,2.3104,2.3105,2.3105,0,2.2549,2.2579,2.2626,2.2651,2.2673,2.2712,2.2738,2.2761,2.2789,2.2835,2.286,2.2905,2.2943,2.3014,2.3044,2.3087,2.3091,2.3118,2.3098,2.3093,2.3094,2.3092,2.3096,2.3121,2.3122,2.3122,2.3123,0,2.2599,2.2611,2.2648,2.269,2.2722,2.2756,2.2791,2.281,2.284,2.287,2.2916,2.2945,2.3003,2.3049,2.3095,2.3119,2.3127,2.3129,2.3138,2.3133,2.3124,2.3131,2.3054,2.3127,2.3126,2.3126,2.3126,2.3126,2.2633,2.2661,2.27,2.2742,2.277,2.2803,2.2833,2.2859,2.2897,2.2946,2.2958,2.3007,2.3046,2.3109,2.3135,2.3174,2.317,2.3182,2.3186,2.3189,2.319,2.3117,2.3182,2.3182,2.3182,2.3182,2.3182,0,2.2685,2.2711,2.2749,2.2797,2.2831,2.2835,2.2874,2.2902,2.2945,2.298,2.3017,2.3071,2.3116,2.3151,2.3197,2.3222,2.3227,2.3234,2.3233,2.3238,2.3191,2.3179,2.3229,2.3229,2.3229,2.3229,2.3229,2.3229,2.2716,2.2766,2.2782,2.2847,2.2873,2.292,2.2943,2.2974,2.3002,2.3062,2.3099,2.3121,2.3157,2.3207,2.3249,2.3258,2.3275,2.3282,2.3292,2.3247,2.3241,2.3237,2.3226,2.3285,2.3285,2.3336,2.3336,2.3337]},{"header":{"parameterUnit":"m.s-1","parameterCategory":1,"la1":30.2991,"la2":30.254,"lo1":-89.0895,"lo2":-89.0444,"dy":0.0017,"dx":0.0017,"nx":28,"ny":28,"refTime":"2025-03-16T03:00:00:Z","depth":0,"parameterNumber":3,"parameterNumberName":"V-component_of_WINDS"},"data":[0,0,0,0,0,0,0,0,0,0,0,0,0,0,0,0,0,0,0,0,0,0,0,0,0,0,0,0,0,0,0,0,0,0,0,0,0,0,0,0,0,0,0,0,0,0,0,0,0,0,0,0,0,0,0,0,0,0,-3.8958,-3.896,0,-3.9079,-3.908,-3.9081,-3.9136,-3.9136,-3.9136,-3.9136,-3.9255,-3.9259,-3.9262,0,0,0,0,0,0,0,0,0,0,0,0,0,-3.8775,-3.8779,-3.8958,-3.896,-3.8961,-3.9078,-3.908,-3.9082,-3.9136,-3.9136,-3.9136,-3.9136,-3.9254,-3.9258,-3.9262,0,0,0,0,0,0,0,0,0,0,0,0,0,-3.8871,-3.878,-3.8958,-3.9003,-3.9008,-3.9078,-3.908,-3.9082,-3.9136,-3.9136,-3.9136,-3.9136,-3.9253,-3.9258,-3.9263,-3.9296,0,0,-3.9278,-3.928,0,0,0,0,0,0,0,0,-3.8865,-3.8878,-3.8995,-3.9,-3.9006,-3.9092,-3.9059,-3.9154,-3.9136,-3.9087,-3.9136,-3.9136,-3.9201,-3.921,-3.9233,-3.9302,-3.9307,-3.9278,-3.9281,-3.9283,-3.9285,0,0,0,0,0,0,0,-3.8859,-3.8873,-3.9006,-3.8996,-3.9003,-3.9017,-3.903,-3.9078,-3.9143,-3.9092,-3.9096,-3.911,-3.9204,-3.9228,-3.9236,-3.9309,-3.9278,-3.9282,-3.9285,-3.9287,-3.9415,-3.9415,0,0,0,0,0,0,-3.8845,-3.8867,-3.9002,-3.9009,-3.8934,-3.902,-3.9035,-3.9065,-3.9143,-3.9155,-3.911,-3.9112,-3.922,-3.923,-3.9241,-3.9287,-3.9283,-3.9288,-3.9291,-3.9414,-3.9415,-3.9415,0,0,0,0,0,0,-3.8841,-3.8857,-3.8997,-3.894,-3.8958,-3.9023,-3.9056,-3.9067,-3.9091,-3.9157,-3.9169,-3.9122,-3.922,-3.9234,-3.9283,-3.9292,-3.929,-3.9294,-3.9414,-3.9414,-3.9415,-3.9379,0,0,0,0,0,0,-3.8836,-3.8855,-3.8868,-3.8939,-3.8961,-3.9037,-3.9057,-3.9069,-3.91,-3.9104,-3.9172,-3.9183,-3.9221,-3.9275,-3.9288,-3.9299,-3.9298,-3.9413,-3.9414,-3.9415,-3.938,-3.9378,-3.9377,0,0,0,0,0,-3.8829,-3.8852,-3.8868,-3.8884,-3.8979,-3.9038,-3.905,-3.9095,-3.91,-3.9115,-3.9157,-3.9181,-3.9289,-3.928,-3.9294,-3.9307,-3.9413,-3.9414,-3.9415,-3.938,-3.9379,-3.9377,0,0,0,0,0,0,-3.8777,-3.8862,-3.8881,-3.8928,-3.8976,-3.9047,-3.9066,-3.9091,-3.9137,-3.9139,-3.9191,-3.9206,-3.9251,-3.9284,-3.9272,-3.9345,-3.9353,-3.9357,-3.9322,-3.9321,-3.932,-3.9311,-3.9302,0,0,0,0,0,-3.8772,-3.8813,-3.8884,-3.8918,-3.8942,-3.9,-3.9027,-3.9058,-3.9108,-3.9128,-3.9175,-3.9222,-3.9268,-3.9296,-3.9341,-3.9385,-3.9402,-3.9401,-3.94,-3.9399,-3.9401,-3.943,-3.9431,-3.9418,-3.9418,-3.9418,0,0,-3.876,-3.8811,-3.8833,-3.891,-3.895,-3.8992,-3.9016,-3.9058,-3.909,-3.9134,-3.9185,-3.9221,-3.9278,-3.9325,-3.9348,-3.9354,-3.9409,-3.94,-3.9398,-3.9402,-3.9431,-3.9432,-3.9433,-3.9419,-3.9419,-3.9419,0,0,-3.876,-3.8802,-3.8837,-3.8878,-3.894,-3.898,-3.8988,-3.9057,-3.9083,-3.9135,-3.917,-3.9208,-3.9284,-3.9325,-3.9355,-3.9375,-3.9399,-3.9388,-3.9381,-3.9408,-3.9409,-3.941,-3.9419,-3.9421,-3.9391,-3.939,-3.939,0,-3.8737,-3.8802,-3.8851,-3.8893,-3.8926,-3.8971,-3.9007,-3.9044,-3.9117,-3.9139,-3.9145,-3.9244,-3.9286,-3.9345,-3.935,-3.9372,-3.9384,-3.938,-3.9405,-3.9407,-3.9409,-3.9418,-3.942,-3.9389,-3.9389,-3.9389,-3.9389,0,-3.8771,-3.8816,-3.8837,-3.8909,-3.8944,-3.8982,-3.9038,-3.9068,-3.9097,-3.9136,-3.9189,-3.9241,-3.9299,-3.9315,-3.9342,-3.9379,-3.9381,-3.9395,-3.9404,-3.9408,-3.9417,-3.942,-3.9387,-3.9387,-3.9388,-3.9388,0,0,-3.8739,-3.8842,-3.8848,-3.8883,-3.8957,-3.8992,-3.9034,-3.9092,-3.9118,-3.9167,-3.9204,-3.927,-3.9285,-3.9319,-3.9352,-3.9375,-3.939,-3.9388,-3.939,-3.9387,-3.9436,-3.9425,-3.9428,-3.9407,-3.9408,-3.9409,-3.9432,0,-3.875,-3.8827,-3.8875,-3.8933,-3.8976,-3.9021,-3.9058,-3.9107,-3.9145,-3.9187,-3.9229,-3.9276,-3.9291,-3.9313,-3.9338,-3.9383,-3.9401,-3.9382,-3.9442,-3.9443,-3.9426,-3.9433,-3.942,-3.9439,-3.9436,-3.9436,-3.9437,0,-3.8772,-3.8824,-3.8886,-3.8959,-3.8979,-3.9011,-3.907,-3.9109,-3.9167,-3.9194,-3.9234,-3.9268,-3.9314,-3.9321,-3.9386,-3.9372,-3.94,-3.9426,-3.9428,-3.9435,-3.944,-3.944,-3.9446,-3.9449,-3.9442,-3.9442,-3.9442,0,-3.8744,-3.8829,-3.8879,-3.8907,-3.8992,-3.9014,-3.905,-3.9108,-3.9141,-3.9193,-3.9216,-3.9271,-3.9301,-3.9344,-3.9393,-3.9392,-3.9454,-3.9463,-3.9477,-3.9476,-3.9487,-3.9486,-3.9498,-3.9505,-3.9505,-3.9505,-3.9504,0,-3.8751,-3.8788,-3.8868,-3.8898,-3.8941,-3.8997,-3.9038,-3.9078,-3.913,-3.9169,-3.9212,-3.9247,-3.9309,-3.9353,-3.9391,-3.9441,-3.9454,-3.9477,-3.9486,-3.9473,-3.947,-3.9491,-3.9491,-3.9505,-3.9505,-3.9505,-3.9505,0,-3.8726,-3.8781,-3.8838,-3.8916,-3.8936,-3.8965,-3.9031,-3.9063,-3.9105,-3.9154,-3.9169,-3.9234,-3.9289,-3.9342,-3.9413,-3.9439,-3.9489,-3.9501,-3.947,-3.9475,-3.9487,-3.9485,-3.9513,-3.952,-3.9521,-3.9521,-3.9521,0,-3.8727,-3.8757,-3.8839,-3.8869,-3.8905,-3.8953,-3.8988,-3.9045,-3.908,-3.915,-3.9174,-3.9232,-3.9281,-3.9365,-3.9419,-3.9475,-3.949,-3.9496,-3.9498,-3.9485,-3.9491,-3.9489,-3.9493,-3.9494,-3.9494,-3.9493,-3.9493,0,-3.8723,-3.8749,-3.8799,-3.886,-3.8901,-3.8951,-3.9002,-3.9024,-3.9091,-3.9128,-3.9185,-3.9223,-3.9299,-3.9356,-3.942,-3.9457,-3.9486,-3.9493,-3.9499,-3.9485,-3.9466,-3.9478,-3.9466,-3.9491,-3.9491,-3.9492,-3.9492,-3.9492,-3.8711,-3.8741,-3.8805,-3.886,-3.8905,-3.8953,-3.8987,-3.9035,-3.9084,-3.9151,-3.9182,-3.924,-3.93,-3.9388,-3.9426,-3.9472,-3.9479,-3.9488,-3.949,-3.9492,-3.9489,-3.9459,-3.9483,-3.9484,-3.9484,-3.9484,-3.9484,0,-3.871,-3.8754,-3.8805,-3.8877,-3.892,-3.8947,-3.9006,-3.904,-3.9091,-3.9146,-3.9195,-3.9262,-3.9319,-3.9378,-3.9439,-3.9465,-3.948,-3.9478,-3.9477,-3.9486,-3.9479,-3.9468,-3.9465,-3.9465,-3.9465,-3.9465,-3.9465,-3.9465,-3.8715,-3.8768,-3.8803,-3.8879,-3.8923,-3.8982,-3.9014,-3.9059,-3.9103,-3.9176,-3.9225,-3.9264,-3.9321,-3.9387,-3.9441,-3.9457,-3.9477,-3.9472,-3.9492,-3.9485,-3.9486,-3.9487,-3.9477,-3.9476,-3.9476,-3.9496,-3.9496,-3.9496]}]]